TimeAKST,TemperatureF,Dew PointF,Humidity,Sea Level PressureIn,VisibilityMPH,Wind Direction,Wind SpeedMPH,Gust SpeedMPH,PrecipitationIn,Events,Conditions,WindDirDegrees,DateUTC
12:53 AM,37.0,35.1,93,29.89,10.0,SE,11.5,-,0.00,Rain,Light Rain,130,2013-03-06 09:53:00
1:40 AM,37.4,35.6,93,29.89,10.0,SE,10.4,-,0.01,Rain,Light Rain,130,2013-03-06 10:40:00
1:53 AM,37.0,34.0,89,29.89,10.0,SE,11.5,-,0.01,Rain,Light Rain,130,2013-03-06 10:53:00
3:27 AM,35.6,33.8,93,29.87,10.0,Calm,Calm,-,N/A,,Overcast,0,2013-03-06 12:27:00
3:53 AM,35.1,33.1,92,29.87,10.0,Calm,Calm,-,N/A,,Mostly Cloudy,0,2013-03-06 12:53:00
4:04 AM,35.6,33.8,93,29.86,10.0,East,5.8,-,N/A,,Partly Cloudy,90,2013-03-06 13:04:00
4:53 AM,35.1,33.1,92,29.86,10.0,Calm,Calm,-,N/A,,Mostly Cloudy,0,2013-03-06 13:53:00
5:53 AM,35.1,33.1,92,29.86,10.0,Calm,Calm,-,N/A,,Mostly Cloudy,0,2013-03-06 14:53:00
6:53 AM,35.1,33.1,92,29.86,10.0,Calm,Calm,-,N/A,,Overcast,0,2013-03-06 15:53:00
7:38 AM,35.6,33.8,93,29.85,10.0,East,4.6,-,N/A,,Overcast,100,2013-03-06 16:38:00
7:53 AM,36.0,36.0,100,29.86,9.0,ESE,3.5,-,0.00,Rain,Light Rain,120,2013-03-06 16:53:00
8:36 AM,35.6,35.6,100,29.85,10.0,Calm,Calm,-,0.00,,Overcast,0,2013-03-06 17:36:00
8:53 AM,36.0,35.1,97,29.86,7.0,Calm,Calm,-,0.00,Rain,Light Rain,0,2013-03-06 17:53:00
9:53 AM,37.9,37.0,97,29.86,8.0,ESE,9.2,-,0.01,,Overcast,120,2013-03-06 18:53:00
10:53 AM,39.0,37.9,96,29.87,9.0,SE,3.5,-,N/A,,Overcast,140,2013-03-06 19:53:00
11:53 AM,39.9,37.0,89,29.85,10.0,SE,11.5,-,N/A,,Mostly Cloudy,130,2013-03-06 20:53:00
12:53 PM,41.0,37.0,86,29.84,10.0,SE,11.5,-,N/A,,Mostly Cloudy,130,2013-03-06 21:53:00
1:53 PM,39.9,37.0,89,29.82,10.0,SE,8.1,-,0.00,,Overcast,130,2013-03-06 22:53:00
2:53 PM,39.9,35.1,83,29.81,10.0,SSE,9.2,-,0.00,,Overcast,160,2013-03-06 23:53:00
3:53 PM,39.9,33.1,77,29.79,10.0,SSE,15.0,-,N/A,,Overcast,150,2013-03-07 00:53:00
4:00 PM,39.2,33.8,81,29.79,10.0,SSE,11.5,-,N/A,,Overcast,150,2013-03-07 01:00:00
4:53 PM,39.0,35.1,86,29.77,10.0,SE,9.2,-,N/A,,Overcast,140,2013-03-07 01:53:00
5:06 PM,37.4,35.6,93,29.76,10.0,SE,10.4,-,N/A,,Overcast,140,2013-03-07 02:06:00
5:24 PM,39.2,37.4,93,29.76,3.0,ESE,8.1,-,N/A,,Overcast,120,2013-03-07 02:24:00
5:35 PM,37.4,37.4,100,29.75,3.0,ESE,5.8,-,N/A,,Overcast,110,2013-03-07 02:35:00
5:38 PM,37.4,37.4,100,29.75,2.5,ESE,5.8,-,N/A,,Overcast,110,2013-03-07 02:38:00
5:53 PM,37.9,37.9,100,29.76,2.5,ESE,6.9,-,N/A,,Overcast,120,2013-03-07 02:53:00
6:53 PM,37.9,37.9,100,29.73,2.5,ESE,19.6,-,0.01,Rain,Light Rain,120,2013-03-07 03:53:00
6:55 PM,37.4,37.4,100,29.73,4.0,ESE,19.6,-,0.00,Rain,Light Rain,120,2013-03-07 03:55:00
7:53 PM,37.9,37.0,97,29.72,7.0,ESE,18.4,-,0.00,Rain,Light Rain,120,2013-03-07 04:53:00
8:53 PM,37.9,37.0,97,29.70,10.0,ESE,19.6,-,0.00,,Overcast,120,2013-03-07 05:53:00
9:53 PM,37.9,36.0,93,29.68,8.0,ESE,20.7,-,N/A,,Overcast,120,2013-03-07 06:53:00
10:53 PM,37.9,35.1,89,29.65,10.0,ESE,27.6,32.2,0.00,,Overcast,110,2013-03-07 07:53:00
11:41 PM,37.4,35.6,93,29.62,8.0,ESE,27.6,32.2,0.00,Rain,Light Rain,110,2013-03-07 08:41:00
11:53 PM,37.0,35.1,93,29.62,7.0,ESE,25.3,35.7,0.00,Rain,Light Rain,120,2013-03-07 08:53:00